Theta_e
324 325 336 340 344 342 342 344 343 345 346 345 344 346 346 344 346 349 346 347 346 346 348 349 341 341 343 343 339 330 332 340 342 342 341 339 336 331 333 332 333 333 334 338 339 338 335 333 323
328 329 336 338 342 342 344 343 345 345 343 342 343 342 342 342 342 342 346 346 347 345 345 344 337 338 340 341 342 339 329 334 341 340 339 339 338 335 331 332 336 338 339 337 336 334 335 335 332
325 332 338 338 342 341 345 345 347 345 345 344 343 344 342 342 339 339 341 345 343 342 342 336 337 337 336 339 340 341 341 331 333 339 341 340 339 335 332 335 339 341 341 340 339 337 333 332 337
331 332 332 338 341 344 345 346 345 344 343 344 343 343 341 339 338 341 345 343 340 339 341 333 337 341 338 337 338 340 341 342 335 335 337 341 343 342 341 341 341 340 338 336 336 334 330 329 334
331 332 334 339 342 343 342 341 341 343 343 343 343 345 340 338 341 342 343 340 338 336 337 334 330 332 337 339 340 341 340 340 340 340 336 334 336 338 338 338 337 336 334 333 331 329 326 326 328
333 331 336 338 344 343 342 342 343 343 343 343 343 343 341 340 343 342 340 339 337 337 338 339 328 327 327 327 328 329 332 334 336 335 334 334 336 335 336 336 337 337 336 333 331 330 328 326 329
333 336 335 337 343 344 343 341 340 341 342 344 343 344 339 340 343 338 338 337 338 338 338 336 335 334 332 331 332 332 332 330 330 330 331 332 332 332 333 335 337 338 335 336 337 335 332 329 326
331 336 337 337 340 344 341 342 342 342 344 344 343 342 342 342 343 341 340 339 338 338 336 335 333 332 331 328 319 317 317 318 317 317 318 319 327 325 331 333 333 332 331 335 338 336 337 336 332
326 337 335 336 337 343 341 343 343 344 346 346 344 342 342 341 342 342 341 339 338 339 336 331 328 326 327 327 321 323 318 317 317 317 316 322 323 322 324 319 324 329 332 332 332 333 335 337 336
330 338 339 340 341 342 341 341 343 345 345 344 342 341 342 341 342 340 339 337 337 332 328 329 328 326 325 324 325 325 323 318 318 318 318 318 320 320 319 320 316 320 326 331 332 333 333 333 338
337 339 342 341 341 341 341 342 342 342 345 343 341 340 340 341 340 337 334 334 333 329 329 328 325 325 326 326 326 326 325 324 321 319 320 320 321 322 321 320 320 321 322 325 326 331 336 337 338
342 341 342 341 340 340 342 341 342 343 343 343 342 341 341 339 335 332 331 330 328 329 329 328 327 324 322 325 325 325 323 322 321 320 321 320 319 319 318 318 318 319 319 319 322 324 325 329 333
343 343 342 340 340 341 340 342 342 341 341 341 340 340 338 335 330 329 327 327 327 327 326 326 327 324 323 322 325 323 323 322 321 319 318 316 315 313 315 316 317 317 317 318 318 319 323 325 328
342 343 342 341 341 340 341 340 340 340 339 338 335 333 332 331 331 329 328 328 328 328 327 327 327 326 325 322 322 322 322 320 318 316 315 312 311 310 311 313 314 315 316 316 316 317 317 321 326
342 345 343 342 341 340 339 341 341 340 338 337 333 333 333 332 331 330 329 329 329 329 328 327 326 324 323 324 324 322 320 317 316 314 313 312 311 309 306 310 311 313 314 315 315 315 316 318 321
343 343 346 343 340 339 338 346 339 338 340 338 335 334 334 334 333 329 328 329 329 329 327 324 324 324 324 323 323 321 317 315 314 313 311 310 310 309 309 309 310 311 312 313 311 312 313 315 317
342 342 342 346 340 340 339 345 339 338 338 337 335 335 336 336 333 329 330 330 330 327 326 325 324 324 322 320 318 317 316 314 312 311 310 309 308 308 308 308 309 309 311 311 312 313 313 314 315
340 337 341 341 342 339 341 343 340 338 337 336 335 336 335 334 331 330 330 330 328 328 326 325 325 324 319 317 316 314 312 312 311 309 308 307 306 305 305 307 305 306 308 309 309 311 313 313 315
332 331 336 339 340 340 341 342 342 339 338 337 337 337 336 335 331 330 330 326 327 327 326 325 321 317 314 315 313 312 312 311 309 308 307 307 306 303 304 304 306 306 308 308 310 310 311 312 314
327 330 335 340 339 339 340 342 342 340 338 337 337 337 337 336 333 332 330 328 327 326 324 320 316 314 312 312 311 311 310 309 308 308 307 307 306 304 303 304 306 304 307 307 309 309 310 311 312
326 329 334 335 340 339 341 344 343 340 339 338 338 337 336 336 335 335 330 328 326 323 320 317 315 313 311 307 310 309 309 309 308 307 307 306 304 304 303 304 304 304 305 306 307 307 309 309 311
328 328 332 339 341 341 342 344 347 344 342 339 338 338 337 337 337 335 331 328 325 322 319 316 315 313 310 307 309 309 309 308 308 307 305 305 304 303 303 303 304 304 305 305 306 305 308 308 310
328 329 335 339 339 342 344 343 345 343 344 342 339 338 338 337 336 333 330 326 323 320 318 316 315 312 310 309 308 308 308 307 307 305 305 304 304 303 302 303 303 303 305 305 305 305 305 305 307
333 337 338 339 341 342 342 344 339 346 344 342 339 339 338 335 333 330 326 323 321 319 318 315 312 311 310 309 309 308 307 306 306 306 305 305 304 303 303 303 303 304 304 304 303 305 305 305 305
337 340 339 339 339 337 344 343 339 344 340 340 340 338 334 332 330 327 324 322 320 319 316 313 310 310 309 309 309 308 307 307 306 306 306 306 305 305 305 304 304 304 303 304 304 305 306 305 306
337 337 333 336 335 336 344 341 346 343 341 339 339 335 332 331 328 326 322 321 319 318 315 311 310 310 309 309 309 309 309 308 307 307 307 307 306 306 305 305 305 303 302 302 302 305 305 305 306
337 335 334 335 338 337 337 342 343 339 340 339 338 332 331 329 327 323 321 320 318 316 312 309 310 310 309 309 309 308 308 307 308 308 307 307 307 306 306 306 306 305 305 305 304 305 305 306 305
334 334 335 335 337 338 336 339 338 344 341 340 336 333 331 328 325 322 320 319 317 313 311 309 309 310 309 310 309 309 308 308 308 308 308 308 307 306 306 305 306 307 305 305 305 305 306 305 306
333 333 335 339 338 337 337 339 339 343 341 339 335 333 330 327 324 321 320 318 315 312 309 309 309 309 310 310 309 309 309 308 308 309 308 307 306 308 307 307 306 306 304 304 305 305 306 306 306
333 332 335 335 339 338 338 338 333 340 340 337 335 332 329 326 323 321 319 317 315 312 309 310 310 309 310 310 310 309 309 309 309 309 307 307 307 307 307 307 306 306 306 305 306 305 305 307 305
Wind_Speed
3 2 2 3 6 4 9 7 4 7 7 9 11 16 20 17 10 5 5 10 9 9 10 10 6 3 4 5 5 4 3 4 6 7 9 5 11 12 13 11 8 8 10 10 11 12 10 11 14
3 2 2 5 5 10 9 6 8 13 14 12 14 15 15 15 13 11 5 10 8 10 9 9 6 5 4 3 4 4 4 2 4 6 6 7 7 11 13 13 9 9 10 11 13 11 12 13 13
4 3 7 4 3 9 12 14 13 11 5 3 8 12 8 7 11 6 7 7 7 10 8 9 7 5 4 4 5 4 3 4 3 3 4 7 8 11 15 14 13 13 13 13 13 14 14 15 15
1 3 5 4 13 9 14 11 11 10 10 7 12 12 11 9 5 8 7 7 9 9 9 8 6 7 6 5 3 3 2 1 4 8 10 9 11 12 14 14 14 14 14 15 16 16 17 18 20
2 4 3 7 12 12 9 3 3 4 7 8 6 9 10 8 9 8 8 9 8 9 10 9 7 7 7 7 6 5 3 2 4 6 8 9 10 10 10 12 14 14 15 16 17 17 17 18 21
7 5 8 9 13 9 8 9 7 8 12 15 19 15 9 7 8 7 9 9 9 10 11 11 11 12 12 11 10 10 9 8 8 11 12 9 13 15 17 18 15 15 17 20 19 19 18 18 21
7 7 10 13 12 10 9 5 4 7 13 12 8 9 10 8 7 8 8 10 11 11 10 12 14 18 17 17 15 14 14 14 13 13 13 11 8 8 9 13 17 19 24 24 21 20 21 20 20
3 1 10 12 10 13 6 6 5 7 12 9 4 6 11 9 9 9 9 10 12 14 15 15 15 15 15 19 19 18 17 17 16 15 15 13 14 12 14 13 16 16 24 26 21 32 23 23 23
4 6 10 9 9 11 10 8 7 4 12 10 9 16 17 11 10 11 12 13 16 17 17 16 16 16 15 14 19 18 20 20 19 21 20 16 15 17 15 19 19 20 22 25 23 21 21 30 29
8 6 10 6 9 12 9 11 8 8 11 15 19 18 12 12 12 13 14 16 16 17 16 14 15 15 15 14 14 15 17 19 18 19 19 18 17 18 20 20 22 20 22 21 22 23 22 27 26
2 11 11 7 12 15 14 12 11 8 10 8 14 12 13 15 14 15 16 16 15 14 13 14 14 14 13 13 12 12 13 14 18 22 22 21 18 18 18 18 17 17 19 17 20 17 16 18 23
8 6 10 13 13 14 14 14 15 12 13 12 12 13 15 15 15 15 16 16 14 12 12 11 13 15 15 12 13 13 16 16 17 21 24 24 17 19 20 17 17 16 15 18 18 18 20 19 21
14 13 13 15 13 13 15 13 14 15 14 13 15 15 15 15 16 15 15 13 11 11 11 11 11 12 13 14 13 15 16 20 19 20 24 26 20 21 18 17 16 15 15 16 17 19 20 22 19
10 16 19 18 17 15 17 13 5 10 12 11 14 16 15 15 14 13 12 10 10 10 9 9 10 12 12 17 20 19 22 19 17 17 23 21 19 21 19 17 16 15 15 15 16 17 21 21 20
19 17 14 15 12 15 14 8 9 13 12 12 13 13 14 15 12 11 10 9 7 7 7 9 10 13 16 17 16 18 20 16 16 16 17 19 19 19 17 16 16 16 17 16 16 16 17 18 20
10 12 12 11 14 8 6 8 12 13 14 13 13 12 12 11 10 9 8 7 6 6 7 9 10 13 16 17 16 14 17 15 15 15 16 19 18 19 18 16 14 16 15 17 20 19 18 16 19
12 8 13 12 13 9 7 9 14 15 14 13 14 12 11 9 9 8 6 6 5 3 6 9 12 15 16 17 14 14 15 15 15 15 17 19 17 19 18 16 15 14 12 16 16 17 17 18 17
13 8 11 10 13 10 10 7 15 17 15 14 14 12 11 10 9 7 5 4 3 6 6 9 12 15 19 17 16 15 14 13 14 14 16 17 17 17 16 13 17 14 14 13 16 16 16 16 16
5 10 10 8 4 12 10 9 13 18 18 16 16 14 12 10 9 8 5 3 5 5 6 9 13 18 20 17 17 15 14 14 14 15 17 17 17 19 18 15 15 14 13 14 16 17 18 17 14
12 11 7 3 4 10 7 10 11 19 21 18 17 16 14 13 12 9 6 5 4 3 6 10 14 19 20 15 14 13 13 13 15 16 18 18 17 17 18 17 15 15 13 14 16 17 19 18 16
13 13 11 7 9 6 6 10 14 16 18 18 16 14 14 14 14 10 7 4 3 4 6 10 14 17 18 17 14 13 12 13 16 18 19 19 22 18 20 17 14 15 15 16 17 17 17 19 19
17 19 9 11 14 5 15 3 16 17 16 17 19 19 16 14 13 11 8 6 4 4 6 10 13 15 15 16 13 15 14 16 16 17 20 19 21 20 19 16 16 15 15 18 15 17 19 17 18
12 8 16 17 12 6 13 6 9 14 15 17 21 19 16 13 14 12 9 7 5 5 6 9 12 13 13 13 14 13 14 13 14 16 19 18 19 19 18 17 17 16 16 15 15 17 18 17 16
10 13 13 11 6 10 12 12 6 11 17 16 19 15 13 15 14 13 11 8 5 4 6 8 10 11 12 13 14 14 14 15 16 16 18 19 19 21 18 17 17 17 17 16 17 15 18 19 19
11 16 8 9 9 7 6 7 9 8 5 15 18 16 17 16 15 13 10 6 4 3 6 7 10 11 12 12 13 15 14 14 14 17 16 18 18 19 21 18 18 17 18 18 17 15 15 18 18
18 14 10 6 8 3 5 6 4 5 5 7 17 19 19 17 14 12 9 6 3 3 6 8 9 10 11 12 12 12 13 13 14 14 16 15 18 17 16 18 18 19 21 20 18 14 15 15 14
13 8 3 4 3 10 3 5 6 6 8 14 19 20 19 17 15 12 9 6 3 4 6 7 8 8 10 11 11 13 14 14 13 15 15 15 16 16 16 17 17 18 19 20 18 16 17 15 15
9 12 6 8 8 9 3 6 6 13 14 15 19 20 19 17 15 12 8 6 4 4 5 6 6 7 8 9 11 11 12 11 13 15 15 15 17 17 16 18 17 18 22 20 19 17 17 17 14
6 8 5 5 4 9 10 2 6 5 15 17 20 20 19 17 15 12 8 6 4 4 3 5 5 5 6 8 10 10 9 11 13 15 16 18 17 19 17 18 19 19 21 22 22 17 17 16 15
4 9 11 9 5 4 6 6 3 2 13 17 19 19 18 16 14 11 7 5 3 2 3 3 4 5 6 7 8 8 8 10 11 14 15 17 18 20 18 18 17 18 21 21 19 21 18 16 17
Wind_Direction
222 296 321 263 219 217 118 94 81 131 95 60 56 67 73 47 20 47 91 46 35 41 41 21 21 38 88 86 69 64 75 87 163 174 192 196 200 195 213 216 214 213 207 207 213 214 212 201 194
197 293 277 262 227 138 96 123 90 76 99 103 74 88 68 70 48 73 115 38 48 56 39 41 35 16 22 50 78 62 77 98 119 167 185 195 196 199 207 217 229 240 240 235 235 232 227 221 208
177 261 273 311 282 93 103 92 107 96 87 115 109 69 52 42 37 57 25 52 51 60 42 57 44 36 38 28 29 80 103 130 157 165 178 181 194 194 204 217 226 233 238 241 245 244 236 229 219
219 238 234 227 94 52 109 106 112 120 99 79 114 84 85 49 50 37 68 88 63 59 50 57 52 56 53 52 41 17 4 206 201 193 201 196 206 213 217 226 236 240 240 239 239 241 241 231 226
232 248 171 118 85 104 83 107 68 82 91 101 110 99 91 64 54 66 57 67 68 61 61 53 46 33 32 34 38 33 24 356 279 252 232 231 236 237 242 246 229 238 242 243 243 244 238 233 226
229 263 153 130 109 109 93 93 93 98 112 107 106 99 87 83 66 76 70 66 63 63 67 60 48 41 42 38 35 30 25 11 338 336 349 323 286 287 277 258 260 247 248 243 241 239 239 236 231
285 244 96 112 122 137 109 94 92 105 112 71 122 103 118 87 91 87 76 64 70 72 65 70 63 60 66 63 55 45 36 31 21 8 4 4 346 305 291 286 278 266 275 260 250 252 250 237 230
249 151 138 119 147 112 119 111 87 84 82 95 94 113 122 111 105 95 82 70 77 77 81 69 74 69 65 59 53 47 39 31 25 17 7 1 8 346 341 309 286 272 259 262 263 248 258 255 243
222 197 110 113 133 123 142 129 63 75 103 67 90 106 119 114 109 97 89 87 84 79 82 82 81 74 67 62 53 38 31 23 19 15 11 10 3 354 353 329 316 304 288 282 278 267 259 252 248
257 130 84 43 87 125 110 96 98 124 108 92 107 112 107 117 112 107 102 97 90 88 84 78 70 55 56 54 52 39 26 16 9 7 1 356 351 344 343 337 322 306 301 297 291 282 266 256 255
19 98 119 114 114 121 115 98 103 113 95 108 130 126 118 118 115 109 99 96 94 85 75 68 60 56 51 43 40 32 25 18 3 356 353 347 346 337 335 330 319 311 304 299 292 293 292 259 248
123 106 114 121 126 129 108 100 71 79 86 110 120 125 126 124 117 108 102 101 99 85 77 61 50 31 22 28 23 19 8 9 0 352 345 342 345 336 332 325 321 311 305 297 294 289 277 282 269
111 114 116 132 124 113 115 91 95 92 104 115 121 126 126 121 114 109 105 100 88 77 66 50 43 30 22 14 19 6 4 350 349 344 337 336 341 334 334 328 323 316 309 303 295 290 285 275 271
134 133 125 129 124 122 117 111 120 115 121 128 130 130 129 125 119 110 107 95 81 75 62 47 38 28 15 357 352 352 345 347 346 345 334 338 341 333 332 328 320 318 311 308 302 294 282 279 278
133 134 136 139 139 132 131 110 109 143 149 148 145 139 137 132 126 119 112 97 83 62 56 44 26 360 343 356 1 353 346 355 355 353 349 352 348 343 342 328 322 316 313 314 309 307 296 282 272
175 169 175 155 162 152 224 123 146 161 170 173 169 157 151 142 136 127 116 95 74 65 32 356 4 6 354 1 355 356 346 353 352 350 348 349 347 343 343 335 328 315 324 305 315 314 303 296 284
189 194 212 164 199 152 238 136 171 173 183 178 178 172 166 154 146 130 115 92 74 7 345 348 341 350 356 349 354 351 352 351 350 351 346 343 345 344 346 340 334 330 322 303 320 323 323 311 299
191 226 205 207 183 204 191 199 170 179 189 187 185 181 175 169 162 150 122 110 295 310 343 341 339 339 341 347 350 349 351 351 353 351 347 352 349 348 351 343 339 342 336 334 331 328 321 319 314
261 216 214 216 109 201 220 204 191 187 198 195 190 190 184 183 173 165 154 227 288 306 332 336 339 342 351 356 357 359 360 355 356 359 359 356 354 355 357 354 349 349 345 342 334 336 340 340 321
233 216 179 145 209 214 206 221 203 197 207 201 199 196 194 185 180 175 179 250 273 312 345 348 350 351 357 4 9 9 3 2 6 358 356 354 352 351 358 355 352 351 351 343 342 347 348 341 340
220 221 186 236 168 222 209 221 214 211 210 212 212 214 205 199 192 188 174 148 110 67 31 3 1 2 3 18 10 15 9 6 4 2 357 359 358 358 357 357 356 354 356 355 353 346 351 343 343
236 225 194 168 184 252 202 297 195 196 202 214 215 216 214 199 189 185 173 155 134 79 23 12 7 9 10 15 17 19 19 13 6 1 3 5 1 4 4 7 3 354 359 3 350 351 354 342 339
253 189 181 184 214 177 193 262 106 187 205 210 212 214 214 183 191 177 167 154 126 72 37 21 15 17 19 21 25 28 21 16 7 11 10 9 6 6 15 11 9 9 5 5 1 358 356 358 350
148 143 157 188 193 237 174 222 206 175 215 199 198 190 180 180 170 159 149 140 109 56 23 15 19 24 24 27 25 24 20 16 11 8 9 10 12 15 11 11 9 4 1 356 1 358 354 355 2
189 167 181 218 210 273 124 219 282 155 171 191 185 171 176 171 165 156 151 143 112 53 29 18 26 28 26 26 25 21 16 10 8 9 6 8 9 14 17 15 11 9 4 359 351 354 353 358 356
202 214 263 259 275 335 145 244 104 110 142 185 169 167 170 169 164 160 155 142 118 61 37 32 30 33 27 26 24 10 9 4 8 6 7 6 9 6 3 3 3 8 10 5 5 359 358 357 356
172 228 14 276 240 270 253 145 171 167 175 170 154 164 166 165 160 160 153 138 110 63 45 40 47 38 34 24 16 9 11 15 16 11 12 8 5 1 356 358 357 358 358 0 0 353 355 2 357
246 145 200 211 263 266 187 284 295 178 174 167 165 168 166 165 159 161 159 137 107 69 46 54 56 46 31 21 17 15 18 19 19 14 15 9 9 4 1 1 1 2 3 5 5 7 355 1 1
175 199 233 303 311 305 303 7 28 161 179 177 170 170 167 168 164 166 162 137 116 77 51 65 51 39 25 12 18 17 23 21 22 19 18 15 12 7 5 6 4 358 7 10 14 10 3 5 3
296 271 200 254 211 253 298 303 53 99 161 172 168 164 166 168 166 167 165 149 125 89 81 76 58 43 17 11 10 22 23 25 25 20 16 22 18 17 23 16 9 7 4 4 359 6 1 4 3